Location: Newark
(15.4608°S, 41.1635°W)
Time: 16:25:07
(UTC+00:00)

N. Korean satellite - Visible Passes

Search period start: 11 December 2019 00:00
Search period end: 21 December 2019 00:00
Orbit: 455 x 506 km, 97.2° (Epoch: 10 December)

Date Brightness Start Highest point End Pass type
(mag) Time Alt. Az. Time Alt. Az. Time Alt. Az.
12 Dec 9.1 07:36:10 10° NE 07:39:02 26° ESE 07:41:57 10° SSE visible
13 Dec 10.4 07:13:12 10° E 07:13:45 10° ESE 07:14:18 10° ESE visible
16 Dec 9.6 07:28:10 10° ENE 07:30:41 19° ESE 07:33:13 10° SSE visible
19 Dec 8.3 07:44:26 10° NE 07:47:37 36° ESE 07:50:51 10° S visible
20 Dec 9.8 07:20:20 10° ENE 07:22:18 15° ESE 07:24:18 10° SE visible
